[[{"header":{"parameterUnit":"m.s-1","parameterCategory":1,"la1":30.2991,"la2":30.254,"lo1":-89.0895,"lo2":-89.0444,"dy":0.0017,"dx":0.0017,"nx":28,"ny":28,"refTime":"2025-09-16T03:00:00:Z","depth":0,"parameterNumber":2,"parameterNumberName":"U-component_of_WINDS"},"data":[0,0,0,0,0,0,0,0,0,0,0,0,0,0,0,0,0,0,0,0,0,0,0,0,0,0,0,0,0,0,0,0,0,0,0,0,0,0,0,0,0,0,0,0,0,0,0,0,0,0,0,0,0,0,0,0,0,0,0.0352,0.0352,0,0.0353,0.0353,0.0353,0.0368,0.0369,0.0369,0.0369,0.0369,0.0369,0.0368,0,0,0,0,0,0,0,0,0,0,0,0,0,0.0361,0.0361,0.0352,0.0352,0.0352,0.0353,0.0353,0.0353,0.0368,0.0369,0.0369,0.037,0.0369,0.0369,0.0368,0,0,0,0,0,0,0,0,0,0,0,0,0,0.0359,0.0361,0.0352,0.0359,0.036,0.0353,0.0353,0.0353,0.0368,0.0369,0.0369,0.037,0.0369,0.0369,0.0368,0.0353,0,0,0.0367,0.0366,0,0,0,0,0,0,0,0,0.0359,0.0359,0.0358,0.0359,0.036,0.0361,0.0356,0.0353,0.0368,0.0365,0.0369,0.037,0.0366,0.0366,0.0365,0.0353,0.0353,0.0367,0.0366,0.0366,0.0366,0,0,0,0,0,0,0,0.0359,0.0359,0.0352,0.0358,0.0359,0.0362,0.0363,0.0355,0.0362,0.0365,0.0366,0.0366,0.0366,0.0365,0.0365,0.0353,0.0367,0.0366,0.0366,0.0366,0.0328,0.0327,0,0,0,0,0,0,0.0358,0.0359,0.0352,0.0352,0.0361,0.0362,0.0362,0.036,0.0362,0.0363,0.0366,0.0367,0.0366,0.0365,0.0365,0.0346,0.0366,0.0366,0.0365,0.0328,0.0328,0.0327,0,0,0,0,0,0,0.0358,0.0358,0.0352,0.0356,0.0355,0.0361,0.0358,0.036,0.0358,0.0363,0.0364,0.0363,0.0366,0.0365,0.0356,0.0346,0.0365,0.0365,0.0329,0.0328,0.0327,0.0309,0,0,0,0,0,0,0.0359,0.0358,0.0352,0.0355,0.0355,0.0343,0.0358,0.0359,0.0358,0.0359,0.0361,0.0361,0.0367,0.0356,0.0355,0.0346,0.0364,0.033,0.0329,0.0328,0.031,0.0307,0.0305,0,0,0,0,0,0.0359,0.0347,0.0352,0.0351,0.0348,0.0343,0.0342,0.0349,0.0357,0.0351,0.0354,0.0361,0.0348,0.0355,0.0354,0.0344,0.0331,0.0329,0.0328,0.0312,0.0308,0.0305,0,0,0,0,0,0,0.0342,0.0348,0.0353,0.0342,0.0342,0.0345,0.0339,0.0345,0.0343,0.0344,0.0352,0.0352,0.0341,0.0342,0.035,0.0329,0.034,0.0339,0.0329,0.0325,0.0323,0.0322,0.0364,0,0,0,0,0,0.0337,0.0333,0.0338,0.0327,0.0327,0.0333,0.0331,0.0336,0.0336,0.0335,0.0337,0.0337,0.0332,0.0329,0.0325,0.0311,0.0311,0.0303,0.0301,0.0298,0.0296,0.0288,0.0284,0.0322,0.0322,0.0322,0,0,0.0327,0.0329,0.0326,0.0324,0.0324,0.0319,0.0333,0.0326,0.0322,0.0334,0.0325,0.0326,0.0326,0.0314,0.0308,0.0314,0.0286,0.0296,0.0295,0.0294,0.0286,0.0282,0.0279,0.0321,0.0321,0.0321,0,0,0.0305,0.0307,0.0298,0.0298,0.0299,0.0303,0.0301,0.0303,0.0304,0.0295,0.0304,0.0299,0.0291,0.029,0.0289,0.0266,0.0272,0.0264,0.0249,0.0241,0.0238,0.0235,0.0226,0.0222,0.0263,0.0262,0.0262,0,0.0292,0.0284,0.0292,0.0285,0.0284,0.0295,0.0285,0.0285,0.0284,0.0282,0.0289,0.0279,0.028,0.0267,0.0261,0.026,0.0257,0.0264,0.0238,0.0235,0.0233,0.0224,0.022,0.0261,0.0262,0.0262,0.0262,0,0.0267,0.0262,0.0255,0.0254,0.0251,0.0243,0.0249,0.0246,0.0251,0.0254,0.0243,0.0245,0.0241,0.0238,0.0243,0.0225,0.0229,0.0237,0.0248,0.0228,0.022,0.0216,0.026,0.026,0.0261,0.0261,0,0,0.0234,0.0238,0.0235,0.0234,0.0236,0.0231,0.0223,0.022,0.0216,0.0215,0.0207,0.02,0.0207,0.0206,0.0211,0.0203,0.0183,0.0212,0.0212,0.0205,0.0162,0.0155,0.0151,0.0188,0.0187,0.0187,0.0162,0,0.0212,0.0199,0.0206,0.0191,0.0185,0.0196,0.0189,0.0188,0.0191,0.0186,0.0188,0.0183,0.0193,0.0192,0.0185,0.0187,0.0174,0.0189,0.018,0.0179,0.0178,0.0147,0.014,0.0116,0.0159,0.0158,0.0158,0,0.0184,0.0182,0.0167,0.0169,0.0167,0.016,0.0157,0.0152,0.0152,0.0154,0.0152,0.0158,0.0149,0.0162,0.0149,0.0159,0.0155,0.0156,0.0155,0.0153,0.0167,0.0143,0.0109,0.0105,0.0153,0.0153,0.0154,0,0.016,0.0154,0.0143,0.0143,0.0145,0.014,0.014,0.014,0.0137,0.0135,0.0132,0.0129,0.0126,0.0122,0.0127,0.0136,0.0113,0.0126,0.0114,0.0113,0.0107,0.0107,0.007,0.0107,0.0107,0.0107,0.0108,0,0.0134,0.0124,0.0132,0.0126,0.0115,0.0122,0.0111,0.0113,0.0112,0.0106,0.0115,0.0109,0.0116,0.011,0.0114,0.0102,0.0101,0.0102,0.0102,0.01,0.01,0.0097,0.0098,0.0107,0.0107,0.0107,0.0107,0,0.0104,0.011,0.0099,0.0102,0.0103,0.0094,0.0096,0.009,0.0093,0.0084,0.0083,0.0087,0.0081,0.0086,0.0079,0.0081,0.0065,0.0069,0.0065,0.0066,0.0052,0.0053,0.0011,0.0006,0.0048,0.0047,0.0047,0,0.0086,0.0079,0.0081,0.0077,0.0077,0.0072,0.0069,0.0076,0.0073,0.0071,0.0065,0.0059,0.0054,0.0043,0.0045,0.004,0.0043,0.0028,0.0042,0.0039,0.0041,0.004,0.0039,0.0025,0.0025,0.0024,0.0024,0,0.0053,0.0056,0.0052,0.0049,0.0045,0.0043,0.0041,0.0037,0.0045,0.004,0.0034,0.003,0.0023,0.0017,0.0012,0.0012,0.0018,0.002,0.0017,0.0013,0.0011,0.0011,0.0056,0.0021,0.0021,0.0021,0.0021,0.0022,0.0028,0.0022,0.0022,0.0017,0.0016,0.0014,0.0008,0.0011,0.0005,0.0001,0.0005,-0.0003,-0.0004,-0.001,-0.0011,-0.0018,-0.0012,-0.0017,-0.0018,-0.002,-0.0023,0.0013,-0.0019,-0.0018,-0.0018,-0.0018,-0.0018,0,-0.0005,-0.0005,-0.0009,-0.0012,-0.0017,-0.0009,-0.0011,-0.0015,-0.0022,-0.0024,-0.0028,-0.0036,-0.0043,-0.0041,-0.0047,-0.0053,-0.005,-0.0055,-0.0055,-0.0056,-0.0026,-0.0024,-0.0057,-0.0057,-0.0057,-0.0057,-0.0057,-0.0057,-0.0024,-0.0035,-0.0032,-0.0043,-0.0042,-0.005,-0.0052,-0.0054,-0.0055,-0.0065,-0.007,-0.0068,-0.0069,-0.0075,-0.008,-0.008,-0.0083,-0.0089,-0.0088,-0.0061,-0.0057,-0.0054,-0.0051,-0.009,-0.009,-0.0116,-0.0117,-0.0117]},{"header":{"parameterUnit":"m.s-1","parameterCategory":1,"la1":30.2991,"la2":30.254,"lo1":-89.0895,"lo2":-89.0444,"dy":0.0017,"dx":0.0017,"nx":28,"ny":28,"refTime":"2025-09-16T03:00:00:Z","depth":0,"parameterNumber":3,"parameterNumberName":"V-component_of_WINDS"},"data":[0,0,0,0,0,0,0,0,0,0,0,0,0,0,0,0,0,0,0,0,0,0,0,0,0,0,0,0,0,0,0,0,0,0,0,0,0,0,0,0,0,0,0,0,0,0,0,0,0,0,0,0,0,0,0,0,0,0,3.4925,3.4926,0,3.4952,3.4952,3.4953,3.4914,3.4912,3.4911,3.491,3.4934,3.4936,3.4938,0,0,0,0,0,0,0,0,0,0,0,0,0,3.4837,3.4839,3.4925,3.4926,3.4926,3.4952,3.4952,3.4953,3.4914,3.4912,3.4911,3.4909,3.4933,3.4935,3.4938,0,0,0,0,0,0,0,0,0,0,0,0,0,3.4871,3.4839,3.4925,3.491,3.4909,3.4952,3.4952,3.4953,3.4914,3.4912,3.491,3.4908,3.4932,3.4935,3.4938,3.4997,0,0,3.4947,3.4948,0,0,0,0,0,0,0,0,3.4869,3.4874,3.4912,3.4911,3.491,3.4927,3.493,3.4967,3.4915,3.4912,3.491,3.4907,3.4933,3.4936,3.4945,3.4998,3.4999,3.4947,3.4949,3.495,3.4951,0,0,0,0,0,0,0,3.4866,3.4872,3.4936,3.4912,3.4911,3.49,3.4903,3.4937,3.4934,3.4912,3.4909,3.4913,3.4932,3.4943,3.4945,3.4999,3.4947,3.495,3.4951,3.4952,3.51,3.5102,0,0,0,0,0,0,3.4866,3.4871,3.4935,3.4936,3.4884,3.4904,3.4906,3.4924,3.4933,3.4933,3.4915,3.4911,3.4939,3.4942,3.4946,3.5014,3.495,3.4953,3.4954,3.5097,3.51,3.5102,0,0,0,0,0,0,3.4865,3.4873,3.4934,3.4903,3.491,3.4907,3.4927,3.4925,3.4936,3.4935,3.4934,3.4926,3.4937,3.4942,3.4984,3.5014,3.4954,3.4957,3.5095,3.5098,3.5101,3.5151,0,0,0,0,0,0,3.4862,3.4872,3.4895,3.4904,3.4912,3.4972,3.4929,3.4927,3.4941,3.4937,3.4946,3.4945,3.4936,3.498,3.4987,3.5017,3.4959,3.5092,3.5096,3.51,3.5147,3.5156,3.5163,0,0,0,0,0,3.4859,3.4908,3.4897,3.4904,3.4941,3.4974,3.4979,3.4968,3.4944,3.4966,3.4966,3.4945,3.5011,3.4985,3.4992,3.5024,3.509,3.5095,3.51,3.5143,3.5154,3.5163,0,0,0,0,0,0,3.4901,3.4909,3.4896,3.4949,3.4962,3.4968,3.4996,3.498,3.4999,3.4994,3.4979,3.4981,3.5026,3.5029,3.5001,3.508,3.5046,3.5053,3.5076,3.5087,3.5095,3.5092,3.4961,0,0,0,0,0,3.4917,3.4945,3.4949,3.4995,3.5002,3.4998,3.5012,3.5003,3.5015,3.502,3.5023,3.5034,3.5057,3.5072,3.5093,3.5148,3.5148,3.5173,3.5181,3.5188,3.5193,3.5221,3.5232,3.5119,3.5119,3.5119,0,0,3.4949,3.4957,3.4975,3.5004,3.5013,3.504,3.5003,3.5034,3.5054,3.5024,3.5064,3.5067,3.5078,3.5126,3.5148,3.513,3.5225,3.5194,3.52,3.5201,3.5227,3.5238,3.5247,3.5122,3.5121,3.5121,0,0,3.5021,3.5031,3.507,3.5079,3.5093,3.509,3.51,3.5108,3.5109,3.5149,3.5127,3.515,3.5191,3.52,3.5209,3.5286,3.5266,3.5293,3.5336,3.5363,3.5372,3.5379,3.5405,3.5415,3.5299,3.5299,3.5299,0,3.5059,3.5101,3.5091,3.5124,3.5137,3.5113,3.5151,3.516,3.518,3.5189,3.517,3.522,3.5226,3.5275,3.5294,3.5303,3.5312,3.5291,3.5372,3.5379,3.5386,3.541,3.542,3.5302,3.5302,3.5301,3.5301,0,3.5146,3.5176,3.5206,3.5226,3.5242,3.5278,3.5272,3.529,3.5279,3.5278,3.5318,3.5325,3.5347,3.5358,3.5348,3.5406,3.5395,3.5374,3.5339,3.54,3.5423,3.5432,3.5306,3.5305,3.5304,3.5303,0,0,3.5244,3.526,3.527,3.5279,3.5293,3.5315,3.5349,3.5371,3.5386,3.5401,3.5428,3.5463,3.5443,3.5455,3.5446,3.547,3.5528,3.5446,3.5446,3.5459,3.559,3.5604,3.5615,3.5516,3.5518,3.5519,3.5588,0,3.5315,3.5375,3.5367,3.5424,3.545,3.5428,3.5457,3.5468,3.5468,3.5489,3.5489,3.5513,3.5487,3.5493,3.5516,3.5516,3.5553,3.5511,3.5539,3.554,3.5535,3.5627,3.5642,3.5707,3.5597,3.5599,3.56,0,3.5406,3.5425,3.5484,3.5493,3.5504,3.5531,3.555,3.5572,3.5583,3.5581,3.5595,3.5581,3.5614,3.558,3.5624,3.5595,3.5606,3.5608,3.561,3.5611,3.5573,3.5629,3.5728,3.5737,3.5614,3.5613,3.5612,0,3.5469,3.551,3.555,3.5559,3.5571,3.559,3.5596,3.5605,3.5619,3.5636,3.5644,3.5665,3.5675,3.5691,3.5683,3.5659,3.5728,3.5694,3.5726,3.5726,3.574,3.5738,3.584,3.575,3.575,3.575,3.575,0,3.5548,3.5585,3.5579,3.5604,3.5644,3.5634,3.5674,3.5677,3.5686,3.571,3.5692,3.5715,3.5704,3.5725,3.5719,3.5756,3.5761,3.5759,3.5757,3.576,3.576,3.5766,3.576,3.5753,3.5752,3.5751,3.5751,0,3.5625,3.5623,3.5665,3.5674,3.5677,3.5706,3.5712,3.5735,3.5734,3.5764,3.5771,3.5769,3.5793,3.5787,3.5814,3.581,3.5856,3.5848,3.5852,3.5849,3.5881,3.5878,3.5989,3.6002,3.5905,3.5906,3.5907,0,3.5675,3.5703,3.5715,3.573,3.5737,3.5762,3.5776,3.5768,3.5783,3.5798,3.5819,3.5842,3.586,3.59,3.59,3.592,3.5912,3.595,3.5915,3.5917,3.5911,3.5908,3.591,3.5956,3.5957,3.5958,3.5959,0,3.5763,3.576,3.5782,3.5803,3.5821,3.5837,3.5851,3.5864,3.5857,3.5875,3.59,3.5914,3.5942,3.5964,3.5983,3.5987,3.5971,3.597,3.5978,3.5981,3.5981,3.598,3.5869,3.5967,3.5966,3.5966,3.5965,3.5965,3.5826,3.585,3.5861,3.5886,3.5896,3.591,3.5931,3.5933,3.5955,3.5977,3.597,3.5999,3.6009,3.6033,3.604,3.6061,3.6047,3.6059,3.6062,3.6064,3.6068,3.5979,3.6065,3.6064,3.6064,3.6064,3.6064,0,3.5911,3.5918,3.5941,3.5962,3.5981,3.5966,3.5981,3.5997,3.6023,3.6035,3.6053,3.6082,3.6104,3.6106,3.6127,3.6143,3.6136,3.6149,3.6146,3.6147,3.608,3.607,3.6154,3.6154,3.6154,3.6154,3.6154,3.6154,3.5958,3.5996,3.5995,3.6038,3.6044,3.6073,3.6083,3.6095,3.6104,3.6137,3.6156,3.6157,3.6165,3.6186,3.6205,3.6205,3.6212,3.6227,3.6224,3.6161,3.6152,3.6144,3.6134,3.623,3.623,3.6289,3.629,3.629]}]]